Flag for Marshall Islands Weather past 2 weeks in Majuro, Marshall Islands

Now
85 °F

Cloudy.


Feels Like: 95 °F
Forecast: 81 / 85 °F
Wind: 13 mph from Northeast

Location: Majuro Atoll

Current Time: Apr 1, 2015 at 4:42:47 PM

Latest Report: Apr 1, 2015 at 3:50 PM


Visibility: 15 mi

Pressure: 29.75 "Hg

Humidity: 75%

Dew point: 76 °F

Location of MajuroLocation

Historic Weather in Majuro — Graph

°F

Majuro temperature yesterday

Maximum temperature yesterday: 86 °F (at 10:50 AM)
Minimum temperature yesterday: 78 °F (at 10:51 PM)
Average temperature yesterday: 83 °F

Past Weeks' High & Low Weather Summary

 TemperatureHumidityPressure
High88 °F (Mar 23, 11:54 AM)95% (Mar 25, 1:53 AM)29.96 "Hg (Mar 25, 1:53 AM)
Low76 °F (Mar 20, 3:51 PM)71% (Mar 22, 2:55 PM)29.75 "Hg (Mar 21, 3:55 PM)
Average83 °F82%29.84 "Hg
* Reported Mar 17 2:51 PM — Apr 1 2:51 PM, Majuro, Weather by CustomWeather, © 2015

Note: Actual official high and low records may vary slightly from our data, if they occured in-between our weather recording intervals... More about our weather records

Advertising

Majuro weather history for previous 24 hours

 ConditionsComfort  
Time TempWeatherWind HumidityBarometerVisibility
2:51 PM
Wed, Apr 1
87 °FMore clouds than sun.13 mph72%29.76 "Hg15 mi
1:51 PM87 °FCloudy.15 mph72%29.78 "Hg15 mi
12:54 PM87 °FCloudy.12 mph72%29.80 "Hg15 mi
11:50 AM86 °FCloudy.13 mph76%29.82 "Hg15 mi
10:58 AM85 °FCloudy.16 mph75%29.84 "Hg15 mi
9:52 AM86 °FCloudy.16 mph73%29.84 "Hg15 mi
8:51 AM83 °FCloudy.15 mph77%29.83 "Hg15 mi
7:51 AM83 °FCloudy.14 mph76%29.81 "Hg15 mi
6:53 AM82 °FOvercast.15 mph79%29.78 "Hg15 mi
5:51 AM82 °FSprinkles. Overcast.14 mph82%29.78 "Hg14 mi
4:57 AM82 °FOvercast.9 mph82%29.76 "Hg15 mi
3:57 AM82 °FOvercast.9 mph85%29.75 "Hg15 mi
2:54 AM81 °FOvercast.13 mph86%29.75 "Hg15 mi
1:56 AM82 °FOvercast.12 mph81%29.78 "Hg15 mi
12:52 AM80 °FOvercast.13 mph81%29.81 "Hg15 mi
11:53 PM
Tue, Mar 31
81 °FOvercast.14 mph80%29.84 "Hg15 mi
10:51 PM78 °FSprinkles. Overcast.13 mph87%29.86 "Hg14 mi
9:53 PM83 °FOvercast.10 mph81%29.84 "Hg15 mi
8:53 PM83 °FOvercast.12 mph80%29.84 "Hg15 mi
7:53 PM82 °FOvercast.9 mph83%29.83 "Hg15 mi
6:53 PM84 °FCloudy.12 mph77%29.80 "Hg15 mi
5:54 PM84 °FCloudy.10 mph74%29.78 "Hg15 mi
4:51 PM85 °FCloudy.10 mph76%29.77 "Hg15 mi
Weather by CustomWeather, © 2015

See weather overviewHow to use our weather pages